Location: Grand Rapids
(42.9630°N, 85.6680°W)
Time: 03:04:17
(UTC-04:00)

A-11 Canister half - Pass Details

Date: 30 May 2024
Orbit: 1524 x 1684 km, 47.3° (Epoch: 21 June)

Event Time Altitude Azimuth Distance (km) Brightness Sun altitude
Rises 21:46:37 0° 252° (WSW) 4,669 12.1 -5.7°
Reaches altitude 10° 21:49:38 10° 254° (WSW) 3,692 11.5 -6.2°
Maximum altitude 21:58:59 81° 342° (NNW) 1,570 9.2 -7.5°
Drops below altitude 10° 22:08:36 10° 70° (ENE) 3,790 10.8 -8.9°
Sets 22:11:45 0° 72° (ENE) 4,797 11.3 -9.3°
